logo liguriameteo

Diretta Meteo St-Etienne Boutheon, Francialunedì 4 maggio ore 01:00

Mappa
Sereno 15 °C Sereno 24 Ore: T.min 12 T.max 20
Ponente Sud Km/h 18.5 Punto di rugiada: 6 °C Umidità: 54% Visibilità: 10 Km
Il sole sorge alle: 06:24 Il sole tramonta alle: 20:54
4 Maggio 2026 01:00 tempo osservato: Sereno Sereno 15 54 1014 vento: Nord S 18.5
4 Maggio 2026 00:30 tempo osservato: Sereno Sereno 15 54 1015 vento: Nord S 18.5
4 Maggio 2026 00:00 tempo osservato: Sereno Sereno 13 66 1015 vento: Nord S 13
3 Maggio 2026 23:30 tempo osservato: Sereno Sereno 14 58 1015 vento: Nord S/SE 13
3 Maggio 2026 23:00 tempo osservato: Sereno Sereno 13 62 1015 vento: Nord S/SE 13
3 Maggio 2026 22:30 tempo osservato: Sereno Sereno 12 62 1015 vento: Nord S/SE 11.1
3 Maggio 2026 22:00 tempo osservato: Sereno Sereno 13 58 1015 vento: Nord S/SE 7.4
3 Maggio 2026 21:30 tempo osservato: Sereno Sereno 14 50 1014 vento: Nord S 16.7
3 Maggio 2026 21:00 tempo osservato: Sereno Sereno 16 44 1014 vento: Nord S 18.5
3 Maggio 2026 20:30 tempo osservato: Sereno Sereno 16 44 1014 vento: Nord S 18.5
3 Maggio 2026 20:00 tempo osservato: Sereno Sereno 17 45 1014 vento: Nord S 24
3 Maggio 2026 19:30 tempo osservato: Sereno Sereno 18 42 1014 vento: Nord S 24
3 Maggio 2026 19:00 tempo osservato: Sereno Sereno 18 45 1014 vento: Nord S 25.9
3 Maggio 2026 18:30 tempo osservato: Molto Nuvoloso Molto Nuvoloso 18 48 1014 vento: Nord S 27.8
3 Maggio 2026 18:00 tempo osservato: Nuvoloso Nuvoloso 19 48 1014 vento: Nord S 27.8
3 Maggio 2026 17:30 tempo osservato: Molto Nuvoloso Molto Nuvoloso 20 49 1015 vento: Nord S 22.2
3 Maggio 2026 17:00 tempo osservato: Molto Nuvoloso Molto Nuvoloso 19 48 1015 vento: Nord S 33.3
3 Maggio 2026 16:30 tempo osservato: Sereno Sereno 19 45 1015 vento: Nord S 31.5
3 Maggio 2026 16:00 tempo osservato: Sereno Sereno 18 45 1016 vento: Nord S 27.8
3 Maggio 2026 15:30 tempo osservato: Molto Nuvoloso Molto Nuvoloso 18 51 1016 vento: Nord S 29.6
3 Maggio 2026 15:00 tempo osservato: Coperto Coperto 17 51 1016 vento: Nord S 24
3 Maggio 2026 14:30 tempo osservato: Sereno Sereno 17 51 1016 vento: Nord S 18.5
3 Maggio 2026 14:00 tempo osservato: Sereno Sereno 16 55 1017 vento: Nord S 18.5
3 Maggio 2026 13:30 tempo osservato: Sereno Sereno 16 55 1017 vento: Nord S 13
3 Maggio 2026 13:00 tempo osservato: Sereno Sereno 15 54 1017 vento: Nord S 14.8
3 Maggio 2026 12:30 tempo osservato: Sereno Sereno 16 51 1017 vento: Nord S 16.7
3 Maggio 2026 12:00 tempo osservato: Sereno Sereno 16 55 1017 vento: Nord S 14.8
3 Maggio 2026 11:30 tempo osservato: Sereno Sereno 16 51 1016 vento: Nord S 25.9
3 Maggio 2026 11:00 tempo osservato: Sereno Sereno 17 48 1016 vento: Nord S 22.2
3 Maggio 2026 10:30 tempo osservato: Sereno Sereno 16 51 1016 vento: Nord S 16.7
3 Maggio 2026 10:00 tempo osservato: Sereno Sereno 16 51 1016 vento: Nord S/SO 11.1
3 Maggio 2026 09:30 tempo osservato: Sereno Sereno 16 55 1015 vento: Nord S 14.8
3 Maggio 2026 09:00 tempo osservato: Sereno Sereno 15 54 1016 vento: Nord S 18.5
3 Maggio 2026 08:30 tempo osservato: Sereno Sereno 15 51 1016 vento: Nord S 18.5
3 Maggio 2026 08:00 tempo osservato: Sereno Sereno 14 50 1015 vento: Nord S 22.2
3 Maggio 2026 07:30 tempo osservato: Sereno Sereno 13 54 1016 vento: Nord S 16.7
3 Maggio 2026 07:00 tempo osservato: Sereno Sereno 13 54 1015 vento: Nord S 14.8
3 Maggio 2026 06:30 tempo osservato: Sereno Sereno 13 54 1015 vento: Nord S 18.5
3 Maggio 2026 06:00 tempo osservato: Sereno Sereno 13 54 1016 vento: Nord S 14.8
3 Maggio 2026 05:30 tempo osservato: Sereno Sereno 14 47 1016 vento: Nord S/SE 16.7
3 Maggio 2026 05:00 tempo osservato: Sereno Sereno 14 47 1016 vento: Nord S 14.8
3 Maggio 2026 04:30 tempo osservato: Sereno Sereno 14 44 1016 vento: Nord S 14.8
3 Maggio 2026 04:00 tempo osservato: Sereno Sereno 13 47 1016 vento: Nord S 13
3 Maggio 2026 03:30 tempo osservato: Sereno Sereno 14 41 1016 vento: Nord S 11.1
3 Maggio 2026 03:00 tempo osservato: Sereno Sereno 15 35 1017 vento: Nord S 16.7
3 Maggio 2026 02:30 tempo osservato: Sereno Sereno 14 38 1017 vento: Nord S 14.8